F4GCF Weather Reports


time (UTC)temp
F
wind
direction
speed
knots
gust
knots
rain 1hr
in
rain 24hr
in
rain mn
in
humidity
%
barometer
mb
20260510043351 56 93 0.9 0.9 0.00 0.00 0.00 62 1013.0
20260510042851 56 126 0.9 1.7 0.00 0.00 0.00 62 1013.0
20260510042350 56 112 1.7 2.6 0.00 0.00 0.00 62 1013.0
20260510041850 56 115 0.9 1.7 0.00 0.00 0.00 62 1013.0
20260510041350 56 135 0.9 1.7 0.00 0.00 0.00 62 1013.0
20260510040852 57 124 0.9 1.7 0.00 0.00 0.00 62 1013.0
20260510040351 57 107 0.9 1.7 0.00 0.00 0.00 62 1013.0
20260510035851 57 112 1.7 2.6 0.00 0.00 0.00 62 1013.0
20260510035351 57 127 1.7 4.3 0.00 0.00 0.00 62 1013.0
20260510034851 57 109 1.7 2.6 0.00 0.00 0.00 62 1013.0
20260510034350 57 105 0.9 1.7 0.00 0.00 0.00 62 1013.0
20260510033850 57 112 0.9 4.3 0.00 0.00 0.00 62 1013.0
20260510033350 57 101 0.9 1.7 0.00 0.00 0.00 62 1013.0
20260510032850 57 112 1.7 2.6 0.00 0.00 0.00 62 1013.0
20260510032352 57 119 1.7 4.3 0.00 0.00 0.00 62 1013.0
20260510031851 57 126 1.7 1.7 0.00 0.00 0.00 62 1013.0
20260510031351 57 102 2.6 2.6 0.00 0.00 0.00 62 1013.0
20260510030851 57 119 1.7 1.7 0.00 0.00 0.00 62 1013.0
20260510030351 57 151 2.6 4.3 0.00 0.00 0.00 62 1013.0
20260510025851 57 158 1.7 2.6 0.00 0.00 0.00 62 1013.0
20260510025350 57 135 1.7 1.7 0.00 0.00 0.00 62 1013.0
20260510024850 57 144 1.7 2.6 0.00 0.00 0.00 62 1013.0
20260510024350 57 112 1.7 2.6 0.00 0.00 0.00 62 1013.0
20260510023850 57 124 1.7 4.3 0.00 0.00 0.00 62 1013.0
20260510023350 57 132 1.7 2.6 0.00 0.00 0.00 62 1013.0
20260510022850 57 146 1.7 1.7 0.00 0.00 0.00 62 1013.0
20260510022350 57 139 1.7 4.3 0.00 0.00 0.00 62 1013.0
20260510021850 57 118 0.9 2.6 0.00 0.00 0.00 62 1013.0
20260510021352 57 151 1.7 2.6 0.00 0.00 0.00 62 1012.0
20260510020851 57 148 1.7 4.3 0.00 0.00 0.00 62 1012.0
20260510020351 57 158 1.7 1.7 0.00 0.00 0.00 62 1012.0
20260510015851 57 169 2.6 2.6 0.00 0.00 0.00 62 1013.0
20260510015351 57 165 2.6 4.3 0.00 0.00 0.00 62 1013.0
20260510014851 57 164 1.7 2.6 0.00 0.00 0.00 62 1013.0
20260510014351 57 173 0.9 1.7 0.00 0.00 0.00 62 1013.0
20260510013851 57 168 1.7 1.7 0.00 0.00 0.00 62 1013.0
20260510013351 57 181 1.7 4.3 0.00 0.00 0.00 62 1013.0
20260510012850 57 158 1.7 2.6 0.00 0.00 0.00 62 1013.0
20260510012350 57 155 1.7 2.6 0.00 0.00 0.00 62 1013.0
20260510011850 57 130 1.7 2.6 0.00 0.00 0.00 62 1013.0
20260510011350 57 128 0.9 1.7 0.00 0.00 0.00 62 1013.0
20260510010850 57 104 0.9 1.7 0.00 0.00 0.00 62 1013.0
20260510010350 57 124 1.7 2.6 0.00 0.00 0.00 62 1013.0
20260510005851 57 124 0.9 1.7 0.00 0.00 0.00 62 1013.0
20260510005351 57 112 0.9 1.7 0.00 0.00 0.00 62 1013.0
20260510004851 57 119 1.7 2.6 0.00 0.00 0.00 62 1013.0
20260510004351 57 97 1.7 2.6 0.00 0.00 0.00 61 1012.0
20260510003851 57 104 0.9 1.7 0.00 0.00 0.00 61 1012.0
20260510003350 57 112 0.9 2.6 0.00 0.00 0.00 61 1012.0
20260510002850 57 158 0.0 0.9 0.00 0.00 0.00 61 1012.0
20260510002350 57 137 0.9 1.7 0.00 0.00 0.00 61 1012.0
20260510001850 57 141 0.9 1.7 0.00 0.00 0.00 61 1012.0
20260510001350 57 115 0.9 1.7 0.00 0.00 0.00 61 1013.0
20260510000850 57 163 1.7 1.7 0.00 0.00 0.00 61 1013.0
20260510000350 57 150 0.9 1.7 0.00 0.00 0.00 61 1013.0
20260509235852 57 119 0.9 1.7 0.00 0.00 0.00 61 1013.0
20260509235351 57 119 1.7 1.7 0.00 0.00 0.00 61 1013.0
20260509234851 57 112 0.0 0.9 0.00 0.00 0.00 61 1013.0
20260509234351 57 135 0.9 1.7 0.00 0.00 0.00 61 1012.0
20260509233851 57 112 1.7 1.7 0.00 0.00 0.00 61 1012.0
20260509233351 58 112 1.7 2.6 0.00 0.00 0.00 61 1012.0
20260509232851 58 95 1.7 2.6 0.00 0.00 0.00 61 1013.0
20260509232351 58 112 1.7 1.7 0.00 0.00 0.00 61 1013.0
20260509231851 58 112 0.9 1.7 0.00 0.00 0.00 61 1013.0
20260509231350 58 112 0.9 1.7 0.00 0.00 0.00 61 1013.0
20260509230850 58 112 0.9 0.9 0.00 0.00 0.00 61 1013.0
20260509230352 58 112 0.9 0.9 0.00 0.00 0.00 61 1013.0
20260509225851 58 111 0.9 1.7 0.00 0.00 0.00 61 1013.0
20260509225351 58 83 0.9 1.7 0.00 0.00 0.00 61 1013.0
20260509224851 58 69 1.7 0.9 0.00 0.00 0.00 61 1013.0
20260509224351 58 85 0.9 1.7 0.00 0.00 0.00 61 1013.0
20260509223851 58 45 0.9 0.9 0.00 0.00 0.00 61 1013.0
20260509223351 58 45 0.0 0.9 0.00 0.00 0.00 61 1013.0
20260509222850 58 45 0.0 0.9 0.00 0.00 0.00 61 1013.0
20260509222350 58 45 0.9 0.9 0.00 0.00 0.00 61 1013.0
20260509221850 58 45 0.9 1.7 0.00 0.00 0.00 61 1013.0
20260509221350 58 45 0.9 0.9 0.00 0.00 0.00 61 1013.0
20260509220850 58 45 0.0 0.9 0.00 0.00 0.00 61 1013.0
20260509220350 58 45 0.0 0.9 0.00 0.00 0.00 61 1013.0
20260509215852 58 45 0.0 0.9 0.00 0.00 0.00 61 1013.0
20260509215351 58 45 0.0 0.9 0.00 0.00 0.00 61 1013.0
20260509214851 58 45 0.9 0.9 0.00 0.00 0.00 61 1013.0
20260509214351 58 45 0.0 0.0 0.00 0.00 0.00 61 1013.0
20260509213851 59 45 0.0 0.9 0.00 0.00 0.00 61 1013.0
20260509213350 59 45 0.0 0.0 0.00 0.00 0.00 61 1013.0
20260509212850 59 45 0.0 0.9 0.00 0.00 0.00 61 1013.0
20260509212350 59 45 0.0 0.9 0.00 0.00 0.00 60 1013.0
20260509211850 59 45 0.0 0.0 0.00 0.00 0.00 60 1013.0
20260509211350 59 45 0.0 0.0 0.00 0.00 0.00 60 1013.0
20260509210852 59 45 0.0 0.0 0.00 0.00 0.00 60 1013.0
20260509210352 60 45 0.0 0.0 0.00 0.00 0.00 60 1013.0
20260509205852 60 45 0.0 0.0 0.00 0.00 0.00 60 1012.0
20260509205351 60 45 0.0 0.0 0.00 0.00 0.00 60 1012.0
20260509204851 60 45 0.0 0.0 0.00 0.00 0.00 60 1012.0
20260509204351 60 45 0.0 0.0 0.00 0.00 0.00 60 1013.0
20260509203851 60 45 0.0 0.0 0.00 0.00 0.00 60 1013.0
20260509203350 61 45 0.0 0.9 0.00 0.00 0.00 60 1013.0
20260509202850 61 45 0.0 0.9 0.00 0.00 0.00 60 1013.0
20260509202351 61 112 0.0 0.0 0.00 0.00 0.00 60 1013.0
20260509201850 61 45 0.0 0.9 0.00 0.00 0.00 60 1013.0
20260509201352 61 113 0.9 2.6 0.00 0.00 0.00 60 1012.0
20260509200851 61 112 0.9 0.9 0.00 0.00 0.00 60 1012.0
20260509200351 62 90 0.9 0.9 0.00 0.00 0.00 60 1012.0
20260509195851 62 91 1.7 2.6 0.00 0.00 0.00 60 1012.0
20260509195351 62 112 0.9 0.9 0.00 0.00 0.00 60 1012.0
20260509194850 62 112 0.0 0.9 0.00 0.00 0.00 60 1012.0
20260509194350 62 96 0.9 1.7 0.00 0.00 0.00 60 1012.0
20260509193851 62 90 0.9 0.9 0.00 0.00 0.00 60 1012.0
20260509193350 63 68 0.9 0.0 0.00 0.00 0.00 60 1012.0
20260509192852 63 90 0.0 0.9 0.00 0.00 0.00 60 1011.0
20260509192352 63 112 1.7 1.7 0.00 0.00 0.00 60 1011.0
20260509191851 63 112 0.9 1.7 0.00 0.00 0.00 60 1011.0
20260509191351 63 74 1.7 1.7 0.00 0.00 0.00 60 1011.0
20260509190851 64 101 1.7 4.3 0.00 0.00 0.00 60 1011.0
20260509190351 64 98 1.7 4.3 0.00 0.00 0.00 60 1011.0
20260509185850 64 135 1.7 6.1 0.00 0.00 0.00 60 1011.0
20260509185352 64 91 1.7 4.3 0.00 0.00 0.00 60 1011.0
20260509184852 64 104 2.6 4.3 0.00 0.00 0.00 60 1011.0
20260509184351 65 91 2.6 4.3 0.00 0.00 0.00 60 1011.0
20260509183851 65 106 2.6 6.1 0.00 0.00 0.00 60 1011.0
20260509183351 65 127 4.3 5.2 0.00 0.00 0.00 60 1011.0
20260509182852 65 117 1.7 1.7 0.00 0.00 0.00 60 1010.0
20260509182352 66 83 2.6 2.6 0.00 0.00 0.00 60 1010.0
20260509181851 66 87 2.6 2.6 0.00 0.00 0.00 60 1010.0
20260509181351 66 120 1.7 5.2 0.00 0.00 0.00 60 1010.0
20260509180851 66 118 2.6 4.3 0.00 0.00 0.00 60 1010.0
20260509180351 66 116 5.2 5.2 0.00 0.00 0.00 60 1010.0
20260509175851 67 112 4.3 4.3 0.00 0.00 0.00 60 1009.0
20260509175351 67 118 4.3 6.1 0.00 0.00 0.00 60 1009.0
20260509174850 67 111 2.6 7.0 0.00 0.00 0.00 60 1009.0
20260509174352 67 118 2.6 5.2 0.00 0.00 0.00 60 1009.0
20260509173851 67 99 4.3 5.2 0.00 0.00 0.00 60 1009.0
20260509173351 68 95 2.6 5.2 0.00 0.00 0.00 60 1009.0
20260509172851 68 104 5.2 7.0 0.00 0.00 0.00 59 1009.0
20260509172351 68 135 4.3 5.2 0.00 0.00 0.00 59 1009.0
20260509171850 68 115 4.3 6.1 0.00 0.00 0.00 60 1009.0
20260509171350 69 117 2.6 5.2 0.00 0.00 0.00 60 1009.0
20260509170852 69 127 4.3 5.2 0.00 0.00 0.00 60 1009.0
20260509170352 69 110 2.6 7.0 0.00 0.00 0.00 60 1009.0
20260509165852 69 104 4.3 5.2 0.00 0.00 0.00 60 1009.0
20260509165351 69 112 4.3 6.1 0.00 0.00 0.00 60 1009.0
20260509164851 69 145 4.3 7.8 0.00 0.00 0.00 60 1009.0
20260509164351 70 116 7.0 7.0 0.00 0.00 0.00 60 1009.0
20260509163852 70 138 7.0 7.8 0.00 0.00 0.00 60 1009.0
20260509163352 70 77 4.3 6.1 0.00 0.00 0.00 60 1009.0
20260509162851 70 93 4.3 10.4 0.00 0.00 0.00 60 1009.0
20260509162351 70 124 5.2 5.2 0.00 0.00 0.00 60 1009.0
20260509161851 70 112 4.3 10.4 0.00 0.00 0.00 60 1009.0
20260509161351 71 112 4.3 4.3 0.00 0.00 0.00 60 1009.0
20260509160851 71 68 4.3 7.0 0.00 0.00 0.00 60 1009.0
20260509160350 71 112 5.2 8.7 0.00 0.00 0.00 60 1009.0
20260509155850 71 106 4.3 7.8 0.00 0.00 0.00 60 1009.0
20260509155350 71 135 5.2 6.1 0.00 0.00 0.00 61 1009.0
20260509154852 71 118 4.3 6.1 0.00 0.00 0.00 61 1009.0
20260509154352 71 98 1.7 2.6 0.00 0.00 0.00 61 1009.0
20260509153852 71 127 2.6 7.0 0.00 0.00 0.00 61 1009.0
20260509153351 72 72 4.3 7.8 0.00 0.00 0.00 60 1009.0
20260509152851 72 112 6.1 7.8 0.00 0.00 0.00 61 1009.0
20260509152351 72 105 4.3 7.8 0.00 0.00 0.00 61 1009.0
20260509151853 72 104 4.3 5.2 0.00 0.00 0.00 61 1009.0
20260509151351 72 118 2.6 8.7 0.00 0.00 0.00 61 1009.0
20260509150851 72 117 4.3 5.2 0.00 0.00 0.00 61 1009.0
20260509150351 72 87 1.7 7.0 0.00 0.00 0.00 61 1009.0
20260509145850 72 107 5.2 4.3 0.00 0.00 0.00 61 1009.0
20260509145350 72 89 2.6 7.0 0.00 0.00 0.00 61 1009.0
20260509144850 72 116 6.1 7.0 0.00 0.00 0.00 61 1009.0
20260509144350 73 98 2.6 2.6 0.00 0.00 0.00 61 1008.0
20260509143850 73 103 2.6 7.0 0.00 0.00 0.00 61 1008.0
20260509143352 73 133 2.6 4.3 0.00 0.00 0.00 61 1008.0
20260509142852 73 102 5.2 7.0 0.00 0.00 0.00 62 1009.0
20260509142351 73 112 6.1 5.2 0.00 0.00 0.00 62 1009.0
20260509141852 73 122 2.6 4.3 0.00 0.00 0.00 62 1009.0
20260509141351 73 113 4.3 7.0 0.00 0.00 0.00 62 1009.0
20260509140851 73 140 2.6 4.3 0.00 0.00 0.00 62 1009.0
20260509140351 73 69 4.3 7.0 0.00 0.00 0.00 63 1009.0
20260509135851 73 120 4.3 5.2 0.00 0.00 0.00 63 1009.0
20260509135351 73 112 4.3 5.2 0.00 0.00 0.00 63 1009.0
20260509134851 73 139 6.1 7.0 0.00 0.00 0.00 63 1009.0
20260509134351 73 112 4.3 8.7 0.00 0.00 0.00 62 1009.0
20260509133851 73 99 2.6 4.3 0.00 0.00 0.00 62 1009.0
20260509133351 73 105 5.2 7.0 0.00 0.00 0.00 62 1009.0
20260509132851 73 88 4.3 7.8 0.00 0.00 0.00 63 1009.0
20260509132350 73 92 5.2 5.2 0.00 0.00 0.00 63 1009.0
20260509131850 73 109 5.2 7.0 0.00 0.00 0.00 63 1009.0
20260509131350 73 113 2.6 5.2 0.00 0.00 0.00 63 1010.0
20260509130850 73 120 4.3 6.1 0.00 0.00 0.00 63 1010.0
20260509130350 73 135 6.1 7.8 0.00 0.00 0.00 63 1010.0
20260509125850 73 115 4.3 5.2 0.00 0.00 0.00 63 1010.0
20260509125350 73 99 6.1 4.3 0.00 0.00 0.00 63 1010.0
20260509124850 73 108 5.2 7.0 0.00 0.00 0.00 64 1010.0
20260509124352 72 150 5.2 6.1 0.00 0.00 0.00 64 1010.0
20260509123851 72 127 4.3 7.8 0.00 0.00 0.00 64 1010.0
20260509123351 72 119 4.3 4.3 0.00 0.00 0.00 63 1010.0
20260509122851 72 119 5.2 5.2 0.00 0.00 0.00 64 1010.0
20260509122351 72 28 2.6 2.6 0.00 0.00 0.00 64 1010.0
20260509121850 72 117 4.3 5.2 0.00 0.00 0.00 64 1010.0
20260509121350 72 71 2.6 5.2 0.00 0.00 0.00 64 1010.0
20260509120850 72 140 4.3 6.1 0.00 0.00 0.00 64 1010.0
20260509120350 72 137 4.3 5.2 0.00 0.00 0.00 64 1010.0
20260509115850 71 132 2.6 1.7 0.00 0.00 0.00 64 1011.0
20260509115350 71 108 5.2 7.0 0.00 0.00 0.00 64 1011.0
20260509114850 71 119 2.6 5.2 0.00 0.00 0.00 64 1011.0
20260509114351 71 112 4.3 5.2 0.00 0.00 0.00 64 1011.0
20260509113851 71 106 4.3 5.2 0.00 0.00 0.00 64 1011.0
20260509113351 71 109 2.6 5.2 0.00 0.00 0.00 65 1011.0
20260509112851 71 111 2.6 5.2 0.00 0.00 0.00 65 1010.0
20260509112351 70 102 2.6 4.3 0.00 0.00 0.00 65 1010.0
20260509111851 70 143 5.2 6.1 0.00 0.00 0.00 65 1010.0
20260509111351 70 127 4.3 7.0 0.00 0.00 0.00 65 1011.0
20260509110851 70 134 4.3 7.0 0.00 0.00 0.00 65 1011.0
20260509110350 69 152 7.0 7.0 0.00 0.00 0.00 65 1011.0
20260509105850 69 135 5.2 6.1 0.00 0.00 0.00 65 1011.0
20260509105350 69 115 4.3 7.0 0.00 0.00 0.00 65 1011.0
20260509104850 69 109 5.2 7.8 0.00 0.00 0.00 65 1011.0
20260509104350 69 94 6.1 8.7 0.00 0.00 0.00 65 1011.0
20260509103850 69 140 5.2 6.1 0.00 0.00 0.00 65 1011.0
20260509103350 69 104 5.2 7.8 0.00 0.00 0.00 65 1011.0
20260509102852 68 161 6.1 7.8 0.00 0.00 0.00 65 1011.0
20260509102351 68 125 4.3 6.1 0.00 0.00 0.00 65 1011.0
20260509101851 68 142 6.1 7.0 0.00 0.00 0.00 65 1011.0
20260509101351 68 128 7.0 7.0 0.00 0.00 0.00 65 1010.0
20260509100850 68 134 7.0 10.4 0.00 0.00 0.00 65 1010.0
20260509100350 68 155 5.2 7.0 0.00 0.00 0.00 65 1010.0
20260509095850 68 139 6.1 7.0 0.00 0.00 0.00 66 1011.0
20260509095350 67 160 6.1 7.8 0.00 0.00 0.00 65 1011.0
20260509094850 67 132 5.2 7.8 0.00 0.00 0.00 65 1011.0
20260509094352 67 148 5.2 7.0 0.00 0.00 0.00 65 1011.0
20260509093851 67 60 2.6 1.7 0.00 0.00 0.00 65 1011.0
20260509093351 67 131 5.2 8.7 0.00 0.00 0.00 66 1011.0
20260509092851 66 143 6.1 7.8 0.00 0.00 0.00 66 1011.0
20260509092351 66 142 6.1 7.8 0.00 0.00 0.00 66 1011.0
20260509091850 66 123 4.3 7.0 0.00 0.00 0.00 66 1011.0
20260509091350 66 120 5.2 5.2 0.00 0.00 0.00 66 1011.0
20260509090850 65 112 4.3 7.0 0.00 0.00 0.00 66 1011.0
20260509090350 65 140 5.2 6.1 0.00 0.00 0.00 66 1011.0
20260509085850 65 125 6.1 7.8 0.00 0.00 0.00 66 1012.0
20260509085351 64 109 6.1 7.8 0.00 0.00 0.00 66 1012.0
20260509084851 64 117 5.2 5.2 0.00 0.00 0.00 66 1012.0
20260509084351 64 135 6.1 7.0 0.00 0.00 0.00 66 1012.0
20260509083851 64 129 5.2 6.1 0.00 0.00 0.00 66 1012.0
20260509083351 63 158 7.0 8.7 0.00 0.00 0.00 66 1012.0
20260509082850 63 147 7.0 7.8 0.00 0.00 0.00 66 1013.0
20260509082350 63 142 6.1 7.0 0.00 0.00 0.00 66 1013.0
20260509081850 63 161 6.1 11.3 0.00 0.00 0.00 66 1013.0
20260509081352 62 117 5.2 7.8 0.00 0.00 0.00 66 1013.0
20260509080851 62 127 6.1 7.8 0.00 0.00 0.00 66 1013.0
20260509080351 62 131 6.1 7.0 0.00 0.00 0.00 66 1013.0
20260509075851 62 139 7.0 7.8 0.00 0.00 0.00 66 1013.0
20260509075726 62 141 6.1 11.3 0.00 0.00 0.00 66 1013.0
20260509075457 62 112 4.3 5.2 0.00 0.00 0.00 66 1013.0
20260509074956 61 150 6.1 10.4 0.00 0.00 0.00 66 1013.0
20260509074456 61 147 4.3 5.2 0.00 0.00 0.00 66 1013.0
20260509073956 61 95 6.1 5.2 0.00 0.00 0.00 66 1013.0
20260509073456 60 126 5.2 7.0 0.00 0.00 0.00 67 1013.0
20260509072956 60 146 5.2 7.0 0.00 0.00 0.00 67 1013.0
20260509072455 60 101 4.3 7.0 0.00 0.00 0.00 67 1013.0
20260509071955 59 112 2.6 5.2 0.00 0.00 0.00 67 1013.0
20260509071455 59 127 5.2 7.8 0.00 0.00 0.00 67 1015.0
20260509070956 59 119 2.6 5.2 0.00 0.00 0.00 67 1015.0
20260509070456 58 112 2.6 5.2 0.00 0.00 0.00 67 1015.0
20260509065956 58 136 4.3 4.3 0.00 0.00 0.00 67 1015.0
20260509065456 58 129 4.3 7.0 0.00 0.00 0.00 67 1015.0
20260509064956 57 117 4.3 5.2 0.00 0.00 0.00 66 1015.0
20260509064455 57 128 2.6 4.3 0.00 0.00 0.00 67 1015.0
20260509063955 57 123 2.6 4.3 0.00 0.00 0.00 66 1015.0
20260509063455 56 112 4.3 4.3 0.00 0.00 0.00 66 1015.0
20260509062957 56 135 0.9 1.7 0.00 0.00 0.00 66 1015.0
20260509062456 56 94 2.6 5.2 0.00 0.00 0.00 66 1015.0
20260509061956 56 101 2.6 4.3 0.00 0.00 0.00 65 1015.0
20260509061456 56 112 2.6 2.6 0.00 0.00 0.00 65 1015.0
20260509060956 56 107 1.7 2.6 0.00 0.00 0.00 65 1015.0
20260509060455 55 112 1.7 2.6 0.00 0.00 0.00 65 1015.0
20260509055955 55 104 1.7 2.6 0.00 0.00 0.00 65 1016.0
20260509055455 55 112 1.7 2.6 0.00 0.00 0.00 65 1016.0
20260509054956 55 109 0.9 2.6 0.00 0.00 0.00 65 1016.0
20260509054456 55 90 1.7 2.6 0.00 0.00 0.00 65 1016.0
20260509053956 55 111 0.9 1.7 0.00 0.00 0.00 65 1016.0
20260509053456 55 101 1.7 1.7 0.00 0.00 0.00 65 1016.0
20260509052956 55 113 0.9 1.7 0.00 0.00 0.00 65 1015.0
20260509052456 55 119 1.7 4.3 0.00 0.00 0.00 65 1015.0
20260509051955 55 104 1.7 4.3 0.00 0.00 0.00 65 1015.0
20260509051455 55 90 1.7 1.7 0.00 0.00 0.00 64 1016.0
20260509050955 55 112 1.7 2.6 0.00 0.00 0.00 64 1016.0
20260509050455 55 108 0.9 2.6 0.00 0.00 0.00 64 1016.0
20260509045955 54 97 1.7 1.7 0.00 0.00 0.00 64 1016.0
20260509045455 54 112 0.9 0.9 0.00 0.00 0.00 64 1016.0
20260509044956 54 96 1.7 1.7 0.00 0.00 0.00 64 1016.0
20260509044456 55 112 1.7 1.7 0.00 0.00 0.00 64 1016.0
20260509043956 55 118 0.9 1.7 0.00 0.00 0.00 64 1016.0